Location: Cargill Incorporated Elevator
(42.7294°N, 93.7333°W)
Time: 05:14:42
(UTC+00:00)

DNEPR-1 R/B - Pass Details

Date: 19 January 2026
Orbit: 586 x 1327 km, 64.6° (Epoch: 15 February)

Event Time Altitude Azimuth Distance (km) Brightness Sun altitude
Rises 23:45:01 0° 227° (SW) 2,992 8.6 -6.4°
Reaches altitude 10° 23:47:28 10° 233° (SW) 2,012 7.7 -6.8°
Maximum altitude 23:51:45 47° 308° (NW) 790 4.4 -7.6°
Drops below altitude 10° 23:55:50 10° 24° (NNE) 1,915 5.7 -8.3°
Enters shadow 23:57:17 - 28° (NNE) 2,491 6.2 -8.5°
